User: anonymous   Login
Location: Unspecified
(0.0000°N, 0.0000°E)
Time: 14:34:20
(UTC+00:00)
Language:

ZHOU ENLAI - Orbit

View from above orbital plane
View from above orbital plane
View from above satellite
View from above satellite

Ground track
Ground track

The orbit data is extracted from the following two-line orbital elements,

1 43156U 18008B   21334.13763530  .00001847  00000-0  10884-3 0  9991
2 43156  97.3871  33.8411 0015595 113.0979 330.7640 15.12704735213050
Epoch (UTC): 30 November 2021 03:18:11
Eccentricity: 0.0015595
inclination: 97.3871°
perigee height: 517 km
apogee height: 539 km
right ascension of ascending node: 33.8411°
argument of perigee: 113.0979°
revolutions per day: 15.12704735
mean anomaly at epoch: 330.7640°
orbit number at epoch: 21305

The dashed part of the orbit path shows where the satellite is in the earth's shadow,  

DLR